COSMOS 546

导读

**COSMOS 546卫星摘要** COSMOS 546是苏联航天计划于1973年1月26日发射的人造卫星,隶属于苏联庞大的“宇宙”(Kosmos)卫星系列。作为世界上规模最大的卫星家族,“宇宙”系列涵盖科学研究、技术试验与军事应用等多元任务。该卫星的成功发射延续了苏联在太空探索领域的进程,体现了当时航天技术发展水平,为后续卫星技术积累了重要经验。

Basic Information
目录编号:
6350
目录名称:
COSMOS 546
国际标识:
1973-005A
轨道中心:
EARTH
卫星名称:
COSMOS 546
卫星全名:
--
卫星状态:
在轨 (已飞行19579 天)
发射日期:
1973-01-26 UTC
国别 :
俄罗斯(独联体) (CIS)
星等 :
--
Orbit Information
数据来源 国际轨道数据 AOE轨道数据
星历时间 2026-09-04T00:11:14+0800
12小时前
查看轨道信息
2026-09-03T23:00:00+0800
13小时前
查看轨道信息
半长轴 6852.716km 6852.604km
偏心率 0.001457 0.0014655
轨道倾角 50.635° 50.635°
近地点辐角 237.621° 237.343°
升交点赤经 136.477° 136.721°
平近点角 122.334° 209.892°
近地点 464.594km 464.424km
远地点 484.564km 484.51km
周期 94.092分钟 94.090分钟
每日圈数 15.304132 15.304509
Detailed Information
使用方式:
暂无
2D Orbit Map
3D Orbit Map
Orbit Altitude Analysis Chart
Orbit Inclination Analysis Chart
Orbit Comprehensive Analysis Chart
View Comprehensive Chart
Conjunction Data List
Event ID Objects TCA Miss Dist (km) Collision Risk Probability Collision Risk Index (CRI) Action
CDM_260905-152100-635005-535421
2026-09-05T
15:21:42+0000
0.478 km
远距离
1.770257E-4 高风险 0.8
CDM_260905-155700-635005-283521
2026-09-05T
15:57:09+0000
0.828 km
远距离
4.405356E-5 中风险 0.68
CDM_260904-185900-635006-425021
2026-09-04T
18:59:59+0000
1.074 km
极远距离
1.537146E-5 中风险 0.59
CDM_260904-230200-635005-925421
2026-09-04T
23:02:57+0000
1.072 km
极远距离
1.222495E-5 中风险 0.57
CDM_260904-132000-635004-868821
2026-09-04T
13:20:45+0000
1.334 km
极远距离
8.613829E-6 低风险 0.54
CDM_260906-040400-635006-455621
2026-09-06T
04:04:23+0000
1.369 km
极远距离
8.323809E-6 低风险 0.53
CDM_260905-003100-635006-195721
2026-09-05T
00:31:48+0000
1.351 km
极远距离
7.172867E-6 低风险 0.52
CDM_260904-040800-635006-851821
2026-09-04T
04:08:12+0000
1.748 km
极远距离
3.277702E-6 低风险 0.45
CDM_260905-152700-635005-958121
2026-09-05T
15:27:49+0000
1.517 km
极远距离
3.197813E-6 低风险 0.45
CDM_260905-210000-635005-938721
2026-09-05T
21:00:48+0000
1.162 km
极远距离
3.098406E-6 低风险 0.45